Terug naar catalogus

STARLINK-35337

ActiefCommunicatieVLEO
NORAD 65831·PAYLOAD·🇺🇸 United States

Gelanceerd Sep 29, 2025 vanaf Vandenberg Space Force Base

Loading…

Volgende Passages (komende 24 uur)

TLE

VersSource: CelesTrak SupGP

Epoch: Sep 14, 2026, 21:32 UTC

1 65831C 25221J   26257.89770833  .00040722  00000+0  12033-2 0  2574
2 65831  53.1586 285.5395 0001156  86.6902  60.4256 15.34366646    12

Volg STARLINK-35337 in realtime met AllMySat

Download on the App Store